This is the latest recevied weather packets stored in our database for station/object NQ9F. If no packets are shown the sender has not sent any weather packets the latest 10 day(s).
| Time | Temp. | Humidity | Pressure | Rain* | Wind** | Luminosity | Snow |
|---|---|---|---|---|---|---|---|
| 1777665948 | 16.11° C | 66% | 1017.3 hPa | 0 mm | - | 136 W/m² | - |
| 1777665645 | 16.11° C | 66% | 1017.4 hPa | 0 mm | - | 126 W/m² | - |
| 1777665343 | 16.11° C | 66% | 1017.1 hPa | 0 mm | - | 113 W/m² | - |
| 1777665038 | 16.11° C | 67% | 1017.3 hPa | 0 mm | - | 113 W/m² | - |
| 1777664733 | 16.11° C | 66% | 1017 hPa | 0 mm | - | 120 W/m² | - |
| 1777664430 | 16.11° C | 67% | 1016.9 hPa | 0 mm | - | 136 W/m² | - |
| 1777664127 | 16.11° C | 65% | 1016.7 hPa | 0 mm | - | 148 W/m² | - |
| 1777663826 | 16.11° C | 69% | 1017 hPa | 0 mm | - | 142 W/m² | - |
| 1777663522 | 16.11° C | 68% | 1016.5 hPa | 0 mm | - | 140 W/m² | - |
| 1777663220 | 16.11° C | 68% | 1016.7 hPa | 0 mm | - | 132 W/m² | - |
| 1777662917 | 16.11° C | 66% | 1016.7 hPa | 0 mm | - | 133 W/m² | - |
| 1777662614 | 16.11° C | 65% | 1016.7 hPa | 0 mm | - | 163 W/m² | - |
| 1777662309 | 16.11° C | 67% | 1016.8 hPa | 0 mm | - | 162 W/m² | - |
| 1777662005 | 16.11° C | 68% | 1016.8 hPa | 0 mm | - | 161 W/m² | - |
| 1777661701 | 16.11° C | 67% | 1016.7 hPa | 0 mm | - | 162 W/m² | - |
| 1777661398 | 16.11° C | 67% | 1016.6 hPa | 0 mm | - | 162 W/m² | - |
| 1777661094 | 16.11° C | 67% | 1016.4 hPa | 0 mm | - | 216 W/m² | - |
| 1777660789 | 16.11° C | 67% | 1016.3 hPa | 0 mm | - | 241 W/m² | - |
| 1777660486 | 16.11° C | 66% | 1016.7 hPa | 0 mm | - | 200 W/m² | - |
| 1777660182 | 16.11° C | 66% | 1016.8 hPa | 0 mm | - | 209 W/m² | - |
| 1777659879 | 16.11° C | 64% | 1017 hPa | 0 mm | - | 217 W/m² | - |
| 1777659576 | 16.11° C | 66% | 1017 hPa | 0 mm | - | 227 W/m² | - |
| 1777659273 | 16.11° C | 68% | 1016.9 hPa | 0 mm | - | 257 W/m² | - |
| 1777658970 | 16.11° C | 66% | 1016.8 hPa | 0 mm | - | 264 W/m² | - |
| 1777658667 | 16.11° C | 65% | 1016.7 hPa | 0 mm | - | 264 W/m² | - |
* Rain latest hour (hover to see other rain measurements)
** Current wind speed in m/s (hover to see current wind gust speed)